Regional Weather Roundup
Issued by NWS

Home | Current Version | Previous Version | Graphics & Text | Print | Product List | Glossary On
Versions: 1 2 3 4 5 6 7 8 9 10 11 12 13 14 15 16 17 18 19 20 21 22 23 24 25 26 27 28 29 30 31 32 33 34 35 36 37 38 39 40 41 42 43 44 45 46 47 48 49 50
000
ASUS45 KABQ 241610
RWRNM
NEW MEXICO REGIONAL WEATHER ROUNDUP
NATIONAL WEATHER SERVICE ALBUQUERQUE NM
1000 AM MDT MON JUL 24 2017

NOTE: "FAIR" MEANS FEW OR NO CLOUDS BELOW 12,000 FEET AGL WITH NO
       SIGNIFICANT WEATHER OR OBSTRUCTIONS TO VISION.

      THIS PRODUCT IS RELEASED AS TWO VERSIONS.  ONE VERSION NEAR
      THE TOP OF THE HOUR CONTAINING PRELIMINARY DATA FROM ALBUQUERQUE
      AND OTHER STATIONS.  A FINAL VERSION WITH ADDITIONAL DATA IS
      ISSUED ABOUT 10 MINUTES AFTER THE HOUR.

NMZ501-503-504-510>518-241700-
NORTHWEST PLATEAU/NORTHCENTRAL MOUNTAINS

CITY           SKY/WX    TMP DP  RH WIND       PRES   REMARKS
FARMINGTON     FAIR      75  56  51 E5        30.21S
LOS ALAMOS     FAIR      70  49  46 CALM      30.35S
SANTA FE       FAIR      76  52  43 VRB6      30.27F
TAOS           FAIR      73  46  38 NW5       30.34S
ANGEL FIRE     FAIR      61  52  72 CALM      30.42F

$$
NMZ402-403-502-505>509-241700-
WESTCENTRAL MOUNTAINS/SOUTHWEST MOUNTAINS

CITY           SKY/WX    TMP DP  RH WIND       PRES   REMARKS
GALLUP         CLOUDY    70  60  70 VRB5      30.26F
GRANTS         FAIR      74  53  48 SE13      30.30S
SILVER CITY    CLOUDY    64  63  95 NE7       30.23S

$$
NMZ407-409-411-412-241700-
SOUTHERN DESERTS

CITY           SKY/WX    TMP DP  RH WIND       PRES   REMARKS
DEMING         FAIR      77  65  66 VRB3      30.15S
LAS CRUCES     FAIR      76  63  64 CALM      30.16S
HOLLOMAN AFB   FAIR      78  72  80 CALM      30.15S
ALAMOGORDO     FAIR      75  63  64 S3        30.15S
T OR C         FAIR      79  57  46 CALM      30.17S

$$
NMZ519>523-241700-
CENTRAL VALLEYS/CENTRAL HIGHLANDS

CITY           SKY/WX    TMP DP  RH WIND       PRES   REMARKS
ALBUQUERQUE    CLOUDY    75  57  53 W7        30.21F
DOUBLE EAGLE   PTSUNNY   75  55  50 VRB3      30.25S
MORIARTY ARPT  FAIR      75  55  49 SE6       30.28F
CLINES CORNERS FAIR      73  50  44 CALM      30.32F
BELEN          FAIR      73  59  62 SW3       30.21F
SOCORRO        FAIR      74  61  61 N3        30.19F

$$
NMZ524>526-539-540-241700-
SOUTHCENTRAL MOUNTAINS

CITY           SKY/WX    TMP DP  RH WIND       PRES   REMARKS
RUIDOSO        FAIR      68  55  64 E3        30.33S

$$
NMZ527>531-241700-
NORTHEAST HIGHLANDS/NORTHEAST PLAINS

CITY           SKY/WX    TMP DP  RH WIND       PRES   REMARKS
LAS VEGAS      FAIR      72  52  49 SW6       30.31F
RATON          FAIR      72  57  59 CALM      30.25F
CLAYTON        FAIR      82  58  43 S5        30.16F

$$
NMZ532>537-241700-
EASTCENTRAL PLAINS

CITY           SKY/WX    TMP DP  RH WIND       PRES   REMARKS
SANTA ROSA     FAIR      81  55  41 SE7       30.16S
TUCUMCARI      FAIR      83  61  47 W7        30.09F
CANNON AFB     FAIR      81  64  56 S5        30.15S
CLOVIS AIRPORT FAIR      81  63  54 S5        30.14F

$$
NMZ028-029-538-241700-
SOUTHEAST PLAINS

CITY           SKY/WX    TMP DP  RH WIND       PRES   REMARKS
ROSWELL        FAIR      84  62  47 SE6       30.09F
ARTESIA        FAIR      82  64  54 VRB3      30.09F
CARLSBAD       FAIR      82  65  56 CALM      30.06F
HOBBS          SUNNY     84  61  45 SE8       30.11F


$$




USA.gov is the U.S. government's official web portal to all federal, state and local government web resources and services.